Regional Weather Roundup
Issued by NWS

Home | Current Version | Previous Version | Text Only | Print | Product List | Glossary On
Versions: 1 2 3 4 5 6 7 8 9 10 11 12 13 14 15 16 17 18 19 20 21 22 23 24 25 26 27 28 29 30 31 32 33 34 35 36 37 38 39 40 41 42 43 44 45 46 47 48 49 50
032
ASUS43 KDMX 151706
RWRIA

WEATHER ROUNDUP FOR IOWA
NATIONAL WEATHER SERVICE DES MOINES IA
1100 AM CST FRI DEC 15 2017

NOTE: "FAIR" INDICATES FEW OR NO CLOUDS BELOW 12,000 FEET WITH NO
SIGNIFICANT WEATHER AND/OR OBSTRUCTIONS TO VISIBILITY.

* - THESE STATIONS ARE NOT NWS STATIONS...THUS NOT UNDER NWS
QUALITY CONTROL.  THEY ALSO DO NOT REPORT WEATHER SUCH
AS PRECIPITATION OR FOG.

IAZ001>003-012>014-020>022-031>034-043>046-151800-
   NORTHWEST IOWA

CITY           SKY/WX    TMP DP  RH WIND       PRES   REMARKS
CARROLL *      MOSUNNY   39  25  56 W18       29.95F WCI  30
CHEROKEE *     CLOUDY    38  26  61 W15       29.91F WCI  29
DENISON *      MOSUNNY   37  25  60 SW16      29.96F WCI  28
LE MARS *      CLOUDY    39  25  56 SW8G15    29.91F WCI  34
ORANGE CITY *  SUNNY     37  28  70 W13       29.89F WCI  29
SHELDON *      MOSUNNY   36  27  69 W13       29.87S WCI  27
SIOUX CITY     CLOUDY    39  25  57 SW13      29.94F WCI  31
SPENCER        MOSUNNY   36  29  75 W15       29.89F WCI  27
STORM LAKE *   MOSUNNY   37  25  60 W14G22    29.91F WCI  29
$$

IAZ055>058-069>071-079>083-090>094-151800-
   SOUTHWEST IOWA

CITY           SKY/WX    TMP DP  RH WIND       PRES   REMARKS
ATLANTIC *     PTSUNNY   39  25  56 SW21G26   30.00F WCI  29
AUDUBON *      MOSUNNY   37  27  65 W15G22    29.99S WCI  28
CLARINDA *     PTSUNNY   41  21  45 W20         N/A
COUNCIL BLFS * CLOUDY    37  27  65 W17       30.01F WCI  28
CRESTON *      SUNNY     39  21  48 W23G32    30.01F WCI  29
HARLAN  *      CLOUDY    39  27  60 W22G30    30.02F WCI  29
LAMONI         MOSUNNY   38  22  52 W22G29    30.03F WCI  27
RED OAK *      PTSUNNY   41  23  48 SW16G23   30.03F
SHENANDOAH *   SUNNY     41  23  48 SW16G22   30.07F
$$

IAZ047>049-059>061-072>074-084-151800-
   CENTRAL IOWA

CITY           SKY/WX    TMP DP  RH WIND       PRES   REMARKS
AMES           CLOUDY    38  27  64 W18G24    29.96S WCI  28
ANKENY *       CLOUDY    37  25  60 W10G17    29.99S WCI  30
BOONE *        CLOUDY    37  27  65 W17G23    29.94F WCI  28
CHARITON *     CLOUDY    37  23  56 W17G26    30.00F WCI  28
DES MOINES     CLOUDY    39  24  55 W20       29.98F WCI  29
GRINNELL*      CLOUDY    33  26  76 W14       29.98S WCI  23
KNOXVILLE *    CLOUDY    37  23  56 SW15G22   29.98S WCI  28
MARSHALLTOWN   CLOUDY    34  26  72 W13       29.95S WCI  25
NEWTON *       CLOUDY    34  25  69 W14       29.98S WCI  24
PELLA *        CLOUDY    35  25  65 W10       30.00F WCI  28
PERRY *          N/A     38  25  57 W24       29.97F WCI  27
$$

IAZ004>006-015-016-023>025-035-036-151800-
   NORTH CENTRAL IOWA

CITY           SKY/WX    TMP DP  RH WIND       PRES   REMARKS
ALGONA *       MOSUNNY   37  32  81 W15       29.89F WCI  28
CLARION *      CLOUDY    36  32  87 W14       29.92F WCI  27
ESTHERVILLE    MOSUNNY   35  28  75 W14       29.88F WCI  26
FORT DODGE *   CLOUDY    37  27  67 W12       29.92F WCI  29
MASON CITY     CLOUDY    32  27  81 W12       29.91F WCI  23
FOREST CITY *  CLOUDY    34  30  86 W9        29.89F WCI  26
WEBSTER CITY * CLOUDY    37  27  65 W17       29.91F WCI  28
IOWA FALLS *   CLOUDY    35  28  76 W13       29.95S WCI  26
$$

IAZ007>011-017>019-026>030-037>042-050>054-066-151800-
   NORTHEAST IOWA

CITY           SKY/WX    TMP DP  RH WIND       PRES   REMARKS
CEDAR RAPIDS   CLOUDY    31  24  75 SW14      29.95F WCI  21
CHARLES CITY * FLURRIES  32  32 100 W13       29.91S WCI  22
CLINTON *      FLURRIES  31  24  75 W21       29.97F WCI  18
DECORAH *      CLOUDY    28  27  93 W6        29.87F WCI  22
DUBUQUE        CLOUDY    27  22  81 W14       29.92F WCI  16
MONTICELLO *   CLOUDY    30  23  74 SW10      29.94F WCI  21
OELWEIN *      CLOUDY    30  28  93 W13G20    29.91F WCI  20
WATERLOO       CLOUDY    32  25  75 W13       29.93F WCI  22
$$

IAZ064-065-067-068-078-151800-
   EAST CENTRAL IOWA

CITY           SKY/WX    TMP DP  RH WIND       PRES   REMARKS
DAVENPORT      CLOUDY    31  21  66 SW15      30.01S WCI  20
IOWA CITY      CLOUDY    32  24  72 SW10      30.00F WCI  24
MT. PLEASANT * CLOUDY    33  22  65 SW13      30.02F WCI  23
MUSCATINE *    CLOUDY    32  23  69 SW10G17   30.02F WCI  24
QUAD CITIES    CLOUDY    33  21  61 SW12      30.00F WCI  24
$$

IAZ062-063-075>077-085>089-095>099-151800-
   SOUTHEAST IOWA

CITY           SKY/WX    TMP DP  RH WIND       PRES   REMARKS
BURLINGTON     CLOUDY    33  23  66 SW13      30.03F WCI  24
FAIRFIELD *    CLOUDY    34  23  64 SW12      30.00F WCI  25
FORT MADISON * CLOUDY    34  21  60 SW9       30.04F WCI  26
KEOKUK *       CLOUDY    34  23  64 SW13      30.05F WCI  25
OSKALOOSA *    CLOUDY    33  25  71 W14G21    30.00F WCI  24
OTTUMWA        CLOUDY    35  23  61 SW14      30.00F WCI  26
WASHINGTON *   PTSUNNY   32  25  74 SW12      30.01F WCI  23
$$

ABBREVIATIONS USED IN REMARKS
   TC - TEMPERATURES IN CELSIUS
  WCI - WIND CHILL INDEX
   HX - HEAT INDEX
  VSB - VISIBILITY
$$





USA.gov is the U.S. government's official web portal to all federal, state and local government web resources and services.